TimeEST,TemperatureF,Dew PointF,Humidity,Sea Level PressureIn,VisibilityMPH,Wind Direction,Wind SpeedMPH,Gust SpeedMPH,PrecipitationIn,Events,Conditions,WindDirDegrees,DateUTC
12:53 AM,33.8,30.2,87,30.29,9.0,Calm,Calm,-,N/A,,Clear,0,2012-12-04 05:53:00
1:53 AM,32.0,28.9,88,30.29,8.0,NW,3.5,-,N/A,,Clear,320,2012-12-04 06:53:00
2:21 AM,33.8,30.2,87,30.30,9.0,Calm,Calm,-,N/A,,Mostly Cloudy,0,2012-12-04 07:21:00
2:43 AM,30.2,28.4,93,30.29,10.0,Calm,Calm,-,N/A,,Scattered Clouds,0,2012-12-04 07:43:00
2:53 AM,30.9,28.9,92,30.28,10.0,Calm,Calm,-,N/A,,Scattered Clouds,0,2012-12-04 07:53:00
3:02 AM,32.0,28.4,87,30.29,10.0,Calm,Calm,-,N/A,,Mostly Cloudy,0,2012-12-04 08:02:00
3:53 AM,33.1,30.9,92,30.28,10.0,NNW,3.5,-,N/A,,Overcast,330,2012-12-04 08:53:00
4:53 AM,37.0,34.0,89,30.30,10.0,Calm,Calm,-,N/A,,Overcast,0,2012-12-04 09:53:00
5:53 AM,37.0,34.0,89,30.30,10.0,Calm,Calm,-,N/A,,Overcast,0,2012-12-04 10:53:00
6:45 AM,37.4,35.6,93,30.31,10.0,Calm,Calm,-,N/A,,Overcast,0,2012-12-04 11:45:00
6:53 AM,37.9,35.1,89,30.31,10.0,Calm,Calm,-,N/A,,Overcast,0,2012-12-04 11:53:00
7:34 AM,39.2,35.6,87,30.31,10.0,Calm,Calm,-,N/A,,Overcast,0,2012-12-04 12:34:00
7:53 AM,39.9,36.0,86,30.30,10.0,Calm,Calm,-,N/A,,Overcast,0,2012-12-04 12:53:00
8:00 AM,39.2,37.4,93,30.31,10.0,Calm,Calm,-,N/A,,Overcast,0,2012-12-04 13:00:00
8:53 AM,45.0,42.1,90,30.29,5.0,SSW,5.8,-,N/A,,Overcast,200,2012-12-04 13:53:00
9:53 AM,46.9,43.0,86,30.30,9.0,South,5.8,-,N/A,,Overcast,190,2012-12-04 14:53:00
10:53 AM,46.9,43.0,86,30.27,9.0,SSE,5.8,-,N/A,,Overcast,160,2012-12-04 15:53:00
11:30 AM,46.4,42.8,87,30.26,5.0,South,5.8,-,N/A,,Overcast,180,2012-12-04 16:30:00
11:53 AM,46.9,43.0,86,30.24,7.0,SE,5.8,-,N/A,,Overcast,140,2012-12-04 16:53:00
12:53 PM,48.0,44.1,86,30.21,7.0,South,4.6,-,N/A,,Overcast,180,2012-12-04 17:53:00
1:53 PM,50.0,45.0,83,30.19,7.0,South,3.5,-,N/A,,Overcast,170,2012-12-04 18:53:00
2:53 PM,51.1,46.0,83,30.17,8.0,South,5.8,-,N/A,,Overcast,180,2012-12-04 19:53:00
3:17 PM,51.8,46.4,82,30.17,8.0,South,5.8,-,N/A,,Overcast,190,2012-12-04 20:17:00
3:53 PM,52.0,48.0,86,30.16,7.0,South,6.9,-,N/A,,Overcast,170,2012-12-04 20:53:00
4:53 PM,54.0,48.9,83,30.14,7.0,South,10.4,-,N/A,,Overcast,180,2012-12-04 21:53:00
5:53 PM,54.0,50.0,86,30.12,6.0,South,6.9,-,N/A,,Overcast,170,2012-12-04 22:53:00
6:53 PM,54.0,50.0,86,30.11,6.0,South,5.8,-,N/A,,Overcast,170,2012-12-04 23:53:00
7:53 PM,55.0,50.0,83,30.08,7.0,South,5.8,-,N/A,,Overcast,190,2012-12-05 00:53:00
8:53 PM,55.9,51.1,84,30.04,8.0,South,9.2,-,N/A,,Overcast,170,2012-12-05 01:53:00
9:53 PM,57.0,52.0,83,30.00,9.0,South,10.4,-,N/A,,Overcast,180,2012-12-05 02:53:00
10:53 PM,57.9,53.1,84,29.99,8.0,South,9.2,17.3,N/A,,Overcast,190,2012-12-05 03:53:00
11:53 PM,59.0,54.0,83,29.96,9.0,South,11.5,19.6,N/A,,Overcast,190,2012-12-05 04:53:00